Time,TemperatureF,DewpointF,PressureIn,WindDirection,WindDirectionDegrees,WindSpeedMPH,WindSpeedGustMPH,Humidity,HourlyPrecipIn,Conditions,Clouds,dailyrainin,SoftwareType,DateUTC
2015-05-06 00:02:00,50.4,30.4,30.17,North,-9999,-999.9,-999.0,46,0.00,,,1.04,meteohub,2015-05-06 05:02:00,
2015-05-06 00:07:00,50.4,30.4,30.18,North,-9999,-999.9,-999.0,46,0.00,,,0.00,meteohub,2015-05-06 05:07:00,
2015-05-06 00:12:00,50.2,30.2,30.18,North,-9999,-999.9,-999.0,46,0.00,,,0.00,meteohub,2015-05-06 05:12:00,
2015-05-06 00:17:00,50.2,30.7,30.18,North,-9999,-999.9,-999.0,47,0.00,,,0.00,meteohub,2015-05-06 05:17:00,
2015-05-06 00:22:00,50.2,30.7,30.18,North,-9999,-999.9,-999.0,47,0.00,,,0.00,meteohub,2015-05-06 05:22:00,
2015-05-06 00:27:00,50.2,30.7,30.17,North,-9999,-999.9,-999.0,47,0.00,,,0.00,meteohub,2015-05-06 05:27:00,
2015-05-06 00:32:00,50.2,30.7,30.17,North,-9999,-999.9,-999.0,47,0.00,,,0.00,meteohub,2015-05-06 05:32:00,
2015-05-06 00:37:00,50.2,30.7,30.17,North,-9999,-999.9,-999.0,47,0.00,,,0.00,meteohub,2015-05-06 05:37:00,
2015-05-06 00:42:00,50.2,31.3,30.17,North,-9999,-999.9,-999.0,48,0.00,,,0.00,meteohub,2015-05-06 05:42:00,
2015-05-06 00:47:00,50.2,31.3,30.17,North,-9999,-999.9,-999.0,48,0.00,,,0.00,meteohub,2015-05-06 05:47:00,
2015-05-06 00:52:00,50.2,31.8,30.17,North,-9999,-999.9,-999.0,49,0.00,,,0.00,meteohub,2015-05-06 05:52:00,
2015-05-06 00:57:00,50.0,31.6,30.17,North,-9999,-999.9,-999.0,49,0.00,,,0.00,meteohub,2015-05-06 05:57:00,
2015-05-06 01:02:00,50.2,31.8,30.17,North,-9999,-999.9,-999.0,49,0.00,,,0.00,meteohub,2015-05-06 06:02:00,
2015-05-06 01:07:00,50.2,31.8,30.16,North,-9999,-999.9,-999.0,49,0.00,,,0.00,meteohub,2015-05-06 06:07:00,
2015-05-06 01:12:00,50.0,33.1,30.16,North,-9999,-999.9,-999.0,52,0.00,,,0.00,meteohub,2015-05-06 06:12:00,
2015-05-06 01:17:00,50.0,34.9,30.16,North,-9999,-999.9,-999.0,56,0.00,,,0.00,meteohub,2015-05-06 06:17:00,
2015-05-06 01:22:00,49.8,38.8,30.16,North,-9999,-999.9,-999.0,66,0.00,,,0.00,meteohub,2015-05-06 06:22:00,
2015-05-06 01:27:00,49.8,40.1,30.15,North,-9999,-999.9,-999.0,69,0.00,,,0.00,meteohub,2015-05-06 06:27:00,
2015-05-06 01:32:00,49.8,40.1,30.15,North,-9999,-999.9,-999.0,69,0.00,,,0.00,meteohub,2015-05-06 06:32:00,
2015-05-06 01:37:00,49.8,40.8,30.15,North,-9999,-999.9,-999.0,71,0.00,,,0.00,meteohub,2015-05-06 06:37:00,
2015-05-06 01:42:00,49.8,40.8,30.15,North,-9999,-999.9,-999.0,71,0.00,,,0.00,meteohub,2015-05-06 06:42:00,
2015-05-06 01:47:00,49.8,41.5,30.15,North,-9999,-999.9,-999.0,73,0.00,,,0.00,meteohub,2015-05-06 06:47:00,
2015-05-06 01:52:00,49.8,42.3,30.15,North,-9999,-999.9,-999.0,75,0.00,,,0.00,meteohub,2015-05-06 06:52:00,
2015-05-06 01:57:00,49.8,42.3,30.15,North,-9999,-999.9,-999.0,75,0.00,,,0.00,meteohub,2015-05-06 06:57:00,
2015-05-06 02:02:00,49.8,42.6,30.15,North,-9999,-999.9,-999.0,76,0.00,,,0.00,meteohub,2015-05-06 07:02:00,
2015-05-06 02:07:00,49.8,42.6,30.15,North,-9999,-999.9,-999.0,76,0.00,,,0.00,meteohub,2015-05-06 07:07:00,
2015-05-06 02:12:00,49.8,43.2,30.15,North,-9999,-999.9,-999.0,78,0.00,,,0.00,meteohub,2015-05-06 07:12:00,
2015-05-06 02:17:00,49.8,43.5,30.14,North,-9999,-999.9,-999.0,79,0.00,,,0.00,meteohub,2015-05-06 07:17:00,
2015-05-06 02:22:00,49.8,43.9,30.14,North,-9999,-999.9,-999.0,80,0.00,,,0.00,meteohub,2015-05-06 07:22:00,
2015-05-06 02:27:00,49.8,44.2,30.14,North,-9999,-999.9,-999.0,81,0.00,,,0.00,meteohub,2015-05-06 07:27:00,
2015-05-06 02:32:00,49.8,44.2,30.14,North,-9999,-999.9,-999.0,81,0.00,,,0.00,meteohub,2015-05-06 07:32:00,
2015-05-06 02:37:00,49.8,44.2,30.14,North,-9999,-999.9,-999.0,81,0.00,,,0.00,meteohub,2015-05-06 07:37:00,
2015-05-06 02:42:00,49.8,44.6,30.14,North,-9999,-999.9,-999.0,82,0.00,,,0.00,meteohub,2015-05-06 07:42:00,
2015-05-06 02:47:00,49.8,44.8,30.14,North,-9999,-999.9,-999.0,83,0.00,,,0.00,meteohub,2015-05-06 07:47:00,
2015-05-06 02:52:00,50.0,45.3,30.15,North,-9999,-999.9,-999.0,84,0.00,,,0.00,meteohub,2015-05-06 07:52:00,
2015-05-06 02:57:00,49.8,45.5,30.14,North,-9999,-999.9,-999.0,85,0.00,,,0.00,meteohub,2015-05-06 07:57:00,
2015-05-06 03:02:00,49.8,45.5,30.13,North,-9999,-999.9,-999.0,85,0.00,,,0.00,meteohub,2015-05-06 08:02:00,
2015-05-06 03:07:00,50.0,45.3,30.14,North,-9999,-999.9,-999.0,84,0.00,,,0.00,meteohub,2015-05-06 08:07:00,
2015-05-06 03:12:00,50.0,45.3,30.13,North,-9999,-999.9,-999.0,84,0.00,,,0.00,meteohub,2015-05-06 08:12:00,
2015-05-06 03:17:00,50.0,45.3,30.14,North,-9999,-999.9,-999.0,84,0.00,,,0.00,meteohub,2015-05-06 08:17:00,
2015-05-06 03:22:00,50.0,45.3,30.14,North,-9999,-999.9,-999.0,84,0.00,,,0.00,meteohub,2015-05-06 08:22:00,
2015-05-06 03:27:00,50.0,45.7,30.14,North,-9999,-999.9,-999.0,85,0.00,,,0.00,meteohub,2015-05-06 08:27:00,
2015-05-06 03:32:00,50.0,46.0,30.14,North,-9999,-999.9,-999.0,86,0.00,,,0.00,meteohub,2015-05-06 08:32:00,
2015-05-06 03:37:00,50.0,46.0,30.14,North,-9999,-999.9,-999.0,86,0.00,,,0.00,meteohub,2015-05-06 08:37:00,
2015-05-06 03:42:00,50.0,46.2,30.13,North,-9999,-999.9,-999.0,87,0.00,,,0.00,meteohub,2015-05-06 08:42:00,